1535929200.83,17225,19.69,74626.0,4.51,-14.83,-15.11,0,*74
1535929202.08,17226,19.63,74624.0,4.53,-14.79,-14.97,0,*7F
1535929203.31,17227,19.69,74628.0,4.55,-14.89,-15.15,0,*7C
1535929204.52,17228,19.69,74630.3,4.53,-15.07,-15.25,0,*71
1535929205.77,17229,19.69,74624.8,4.53,-15.21,-15.39,0,*79
1535929207.01,17230,19.69,74628.3,4.53,-15.21,-15.57,0,*79
1535929208.24,17231,19.69,74624.0,4.53,-15.11,-15.39,0,*73
1535929209.48,17232,19.69,74628.8,4.51,-15.11,-15.35,0,*7E
1535929210.69,17233,19.63,74626.8,4.53,-15.07,-15.25,0,*7B
1535929211.91,17234,19.69,74630.0,4.55,-15.07,-15.15,0,*79
1535929213.16,17235,19.69,74626.0,4.53,-15.21,-15.35,0,*78
1535929214.39,17236,19.69,74626.3,4.53,-15.11,-15.39,0,*74
1535929215.62,17237,19.63,74624.0,4.53,-15.25,-15.43,0,*7F
1535929216.84,17238,19.69,74624.5,4.53,-14.93,-15.11,0,*7B
1535929218.07,17239,19.69,74626.3,4.53,-14.97,-15.25,0,*79
1535929219.3,17240,19.63,74622.5,4.53,-15.15,-15.35,0,*7D
1535929220.52,17241,19.63,74626.3,4.53,-15.25,-15.35,0,*7F
1535929221.75,17242,19.63,74626.8,4.53,-15.11,-15.35,0,*7B
1535929222.97,17243,19.69,74630.3,4.53,-15.11,-15.39,0,*76
1535929224.19,17244,19.69,74628.0,4.53,-15.11,-15.35,0,*7D
1535929225.46,17245,19.69,74626.8,4.55,-15.01,-15.35,0,*7B
1535929226.73,17246,19.63,74624.8,4.55,-14.79,-14.93,0,*7B
1535929227.96,17247,19.69,74630.5,4.53,-14.93,-15.07,0,*74
1535929229.2,17248,19.69,74630.8,4.55,-14.93,-15.15,0,*7E
1535929230.42,17249,19.69,74626.8,4.53,-15.11,-15.35,0,*70
1535929231.68,17250,19.69,74628.0,4.55,-15.21,-15.29,0,*70
1535929232.88,17251,19.69,74628.0,4.53,-15.07,-15.25,0,*7F
1535929234.13,17252,19.63,74630.3,4.53,-14.93,-15.21,0,*74
1535929235.35,17253,19.69,74628.8,4.53,-15.07,-15.21,0,*79
1535929236.57,17254,19.69,74630.8,4.53,-15.11,-15.35,0,*7C
1535929237.8,17255,19.69,74626.5,4.53,-15.07,-15.35,0,*7A
1535929239.02,17256,19.69,74624.5,4.53,-15.11,-15.21,0,*7B
1535929240.29,17257,19.69,74626.3,4.55,-15.21,-15.39,0,*76
1535929241.52,17258,19.69,74628.8,4.53,-15.25,-15.57,0,*73
1535929242.75,17259,19.69,74628.3,4.53,-15.11,-15.43,0,*70
1535929243.96,17260,19.69,74626.5,4.53,-15.07,-15.25,0,*7D
1535929245.21,17261,19.69,74628.0,4.53,-14.79,-14.97,0,*7C
1535929246.43,17262,19.69,74626.0,4.53,-14.93,-15.07,0,*73
1535929247.68,17263,19.63,74626.5,4.53,-14.79,-14.97,0,*7E
1535929248.93,17264,19.69,74626.3,4.53,-15.01,-15.21,0,*7B
1535929250.15,17265,19.69,74626.3,4.53,-15.07,-15.35,0,*79
1535929251.37,17266,19.69,74628.0,4.53,-14.97,-15.11,0,*74
1535929252.58,17267,19.69,74626.8,4.53,-15.07,-15.25,0,*7A
1535929253.82,17268,19.69,74626.8,4.53,-15.01,-15.21,0,*77
1535929255.04,17269,19.69,74628.0,4.53,-15.11,-15.35,0,*72
1535929256.27,17270,19.69,74628.5,4.53,-15.11,-15.39,0,*76
1535929257.49,17271,19.63,74624.5,4.53,-14.93,-15.07,0,*71
1535929258.76,17272,19.69,74626.3,4.55,-15.01,-15.21,0,*7A
1535929259.99,17273,19.69,74626.5,4.55,-15.07,-15.29,0,*75
1535929261.22,17274,19.69,74628.3,4.53,-15.01,-15.29,0,*72
1535929262.44,17275,19.69,74626.5,4.53,-15.11,-15.35,0,*7F
1535929263.66,17276,19.69,74624.0,4.53,-15.07,-15.21,0,*7E
1535929264.93,17277,19.63,74626.5,4.55,-14.75,-14.93,0,*75
1535929266.21,17278,19.69,74628.8,4.55,-14.75,-14.93,0,*7A
1535929267.43,17279,19.69,74628.3,4.55,-14.89,-15.11,0,*73
1535929268.68,17280,19.69,74624.8,4.53,-14.97,-15.21,0,*7F
1535929269.9,17281,19.69,74624.8,4.55,-14.89,-15.07,0,*73
1535929271.15,17282,19.69,74630.5,4.55,-14.93,-15.29,0,*77
1535929272.4,17283,19.69,74626.8,4.53,-15.21,-15.43,0,*74
1535929273.65,17284,19.69,74628.3,4.53,-14.97,-15.35,0,*7E
1535929274.88,17285,19.69,74626.8,4.55,-15.15,-15.53,0,*72
1535929276.1,17286,19.69,74626.8,4.53,-15.07,-15.35,0,*74
1535929277.34,17287,19.63,74622.3,4.55,-15.01,-15.07,0,*74
1535929278.59,17288,19.69,74628.8,4.55,-15.01,-15.29,0,*77
1535929279.84,17289,19.69,74626.0,4.55,-15.07,-15.35,0,*7D
1535929281.07,17290,19.63,74626.5,4.53,-15.07,-15.35,0,*73
1535929282.29,17291,19.69,74628.8,4.53,-15.11,-15.35,0,*75
1535929283.51,17292,19.69,74632.3,4.53,-15.11,-15.35,0,*76
1535929284.74,17293,19.63,74624.8,4.55,-15.07,-15.29,0,*7B
1535929285.97,17294,19.69,74628.3,4.53,-14.83,-15.07,0,*7B
1535929287.19,17295,19.63,74624.3,4.53,-14.93,-15.11,0,*7C
1535929288.42,17296,19.63,74624.3,4.53,-15.11,-15.35,0,*72
1535929289.64,17297,19.69,74628.5,4.53,-14.97,-15.25,0,*7D
1535929290.89,17298,19.69,74630.3,4.55,-14.93,-15.15,0,*73
1535929292.14,17299,19.69,74630.0,4.53,-14.79,-14.97,0,*7B
1535929293.37,17300,19.69,74630.3,4.53,-15.07,-15.21,0,*7E
1535929294.59,17301,19.69,74628.0,4.53,-15.07,-15.21,0,*7F
1535929295.82,17302,19.63,74626.5,4.53,-15.07,-15.39,0,*75
1535929297.02,17303,19.69,74624.8,4.57,-15.11,-15.49,0,*70
1535929298.25,17304,19.69,74628.3,4.57,-15.29,-15.39,0,*7B
1535929299.5,17305,19.63,74626.5,4.55,-15.07,-15.35,0,*78
1535929300.73,17306,19.69,74624.0,4.53,-14.97,-15.25,0,*74
1535929301.94,17307,19.63,74624.8,4.53,-15.29,-15.53,0,*70
1535929303.19,17308,19.69,74628.8,4.55,-15.15,-15.39,0,*7A
1535929304.45,17309,19.69,74628.8,4.53,-15.35,-15.57,0,*77
1535929305.7,17310,19.69,74628.5,4.55,-15.15,-15.35,0,*7F
1535929306.92,17311,19.69,74630.5,4.53,-15.11,-15.39,0,*70
1535929308.15,17312,19.63,74626.0,4.53,-15.07,-15.21,0,*7D
1535929309.4,17313,19.63,74628.5,4.55,-14.93,-15.15,0,*71
1535929310.64,17314,19.63,74630.8,4.53,-14.97,-15.35,0,*76
1535929311.89,17315,19.69,74628.8,4.53,-15.21,-15.39,0,*77
1535929313.14,17316,19.69,74628.5,4.55,-14.65,-15.01,0,*78
1535929314.36,17317,19.63,74626.5,4.55,-14.89,-15.07,0,*7D
1535929315.59,17318,19.63,74630.3,4.57,-14.97,-15.25,0,*7F
1535929316.83,17319,19.69,74628.8,4.55,-15.07,-15.35,0,*75
1535929318.06,17320,19.63,74626.3,4.53,-15.11,-15.39,0,*72
1535929319.31,17321,19.69,74630.8,4.53,-15.21,-15.39,0,*70
1535929320.56,17322,19.69,74630.3,4.55,-14.93,-15.15,0,*73
1535929321.82,17323,19.63,74626.3,4.55,-15.01,-15.21,0,*7F
1535929323.05,17324,19.69,74630.5,4.55,-15.07,-15.29,0,*76
1535929324.28,17325,19.69,74628.8,4.53,-15.11,-15.39,0,*77
1535929325.49,17326,19.69,74628.8,4.53,-15.15,-15.29,0,*71
1535929326.72,17327,19.69,74628.3,4.53,-14.97,-15.25,0,*77
1535929327.99,17328,19.63,74626.8,4.55,-14.93,-15.21,0,*7E
1535929329.2,17329,19.69,74628.0,4.53,-15.15,-15.29,0,*7E
1535929330.45,17330,19.69,74626.8,4.53,-15.21,-15.57,0,*78
1535929331.65,17331,19.63,74624.5,4.53,-15.25,-15.67,0,*7E
1535929332.9,17332,19.69,74630.5,4.53,-15.21,-15.39,0,*72
1535929334.12,17333,19.69,74630.5,4.53,-15.11,-15.21,0,*79
1535929335.37,17334,19.69,74632.8,4.53,-15.21,-15.39,0,*74
1535929336.6,17335,19.69,74630.5,4.53,-15.25,-15.43,0,*7C
1535929337.84,17336,19.69,74628.0,4.53,-15.25,-15.39,0,*72
1535929339.11,17337,19.69,74630.8,4.51,-15.35,-15.57,0,*78
1535929340.34,17338,19.63,74626.8,4.53,-15.25,-15.39,0,*7C
1535929341.57,17339,19.69,74628.3,4.53,-15.25,-15.57,0,*75
1535929342.8,17340,19.69,74628.3,4.53,-15.35,-15.67,0,*79
1535929344.02,17341,19.69,74626.8,4.53,-15.35,-15.67,0,*78
1535929345.27,17342,19.63,74624.3,4.53,-15.35,-15.57,0,*78
1535929346.52,17343,19.63,74630.0,4.53,-15.35,-15.57,0,*79
1535929347.75,17344,19.63,74628.0,4.53,-15.25,-15.57,0,*7F
1535929348.96,17345,19.69,74628.3,4.49,-15.25,-15.49,0,*7A
1535929350.23,17346,19.63,74626.0,4.51,-14.97,-15.21,0,*76
1535929351.46,17347,19.69,74632.3,4.51,-15.07,-15.25,0,*7B
1535929352.66,17348,19.63,74628.3,4.49,-15.25,-15.63,0,*7F
1535929353.93,17349,19.63,74630.0,4.51,-15.21,-15.39,0,*7C
1535929355.17,17350,19.69,74630.8,4.51,-15.07,-15.35,0,*7C
1535929356.42,17351,19.63,74630.5,4.51,-14.97,-15.25,0,*74
1535929357.69,17352,19.69,74630.8,4.51,-14.97,-15.21,0,*73
1535929358.93,17353,19.69,74632.3,4.51,-14.79,-15.07,0,*76
1535929360.18,17354,19.63,74628.3,4.51,-14.79,-15.15,0,*72
1535929361.43,17355,19.69,74628.3,4.51,-14.97,-15.25,0,*70
1535929362.66,17356,19.69,74630.5,4.51,-15.07,-15.25,0,*7B
1535929363.9,17357,19.69,74626.8,4.51,-15.11,-15.35,0,*7C
1535929365.17,17358,19.69,74628.5,4.51,-15.21,-15.39,0,*7C
1535929366.44,17359,19.63,74628.5,4.51,-15.35,-15.57,0,*70
1535929367.69,17360,19.63,74628.3,4.51,-15.25,-15.57,0,*7B
1535929368.97,17361,19.69,74630.8,4.51,-15.35,-15.57,0,*7B
1535929370.2,17362,19.69,74628.0,4.49,-15.39,-15.49,0,*72
1535929371.44,17363,19.63,74628.5,4.51,-15.07,-15.35,0,*7C
1535929372.69,17364,19.69,74628.8,4.51,-15.11,-15.39,0,*70
1535929373.94,17365,19.63,74624.5,4.51,-15.11,-15.39,0,*71
1535929375.21,17366,19.63,74626.3,4.51,-14.97,-15.21,0,*74
1535929376.43,17367,19.69,74630.0,4.51,-15.07,-15.25,0,*79
1535929377.68,17368,19.69,74628.3,4.51,-15.15,-15.43,0,*75
1535929378.96,17369,19.63,74630.8,4.51,-15.21,-15.39,0,*7E
1535929380.19,17370,19.63,74626.8,4.49,-15.25,-15.57,0,*73
1535929381.44,17371,19.69,74630.3,4.51,-15.25,-15.43,0,*7E
1535929382.68,17372,19.63,74632.0,4.51,-15.07,-15.35,0,*7C
1535929383.93,17373,19.69,74634.3,4.51,-15.11,-15.39,0,*76
1535929385.18,17374,19.69,74630.0,4.49,-15.01,-15.39,0,*79
1535929386.45,17375,19.63,74628.8,4.51,-15.21,-15.39,0,*73
1535929387.72,17376,19.63,74630.0,4.51,-15.21,-15.43,0,*7D
1535929388.97,17377,19.63,74630.3,4.51,-15.11,-15.43,0,*7F
1535929390.23,17378,19.63,74628.3,4.51,-15.21,-15.43,0,*73
1535929391.46,17379,19.63,74626.3,4.49,-15.25,-15.57,0,*7A
1535929392.71,17380,19.63,74630.0,4.51,-15.35,-15.67,0,*77
1535929393.96,17381,19.69,74632.3,4.51,-15.25,-15.57,0,*74
1535929395.21,17382,19.63,74630.5,4.51,-15.35,-15.71,0,*72
1535929396.43,17383,19.63,74626.0,4.49,-15.39,-15.71,0,*76
1535929397.65,17384,19.69,74626.3,4.49,-15.25,-15.49,0,*77
1535929398.88,17385,19.63,74626.5,4.49,-15.15,-15.43,0,*7F
1535929400.1,17386,19.63,74630.0,4.49,-15.39,-15.63,0,*70
1535929401.35,17387,19.63,74630.8,4.51,-15.25,-15.57,0,*72
1535929402.58,17388,19.69,74630.3,4.49,-15.11,-15.39,0,*7B
1535929403.78,17389,19.69,74632.5,4.49,-15.25,-15.63,0,*72
1535929405.01,17390,19.63,74628.5,4.49,-15.11,-15.39,0,*72
1535929406.24,17391,19.63,74628.8,4.49,-15.25,-15.43,0,*79
1535929407.45,17392,19.63,74630.0,4.49,-14.89,-15.25,0,*7D
1535929408.69,17393,19.63,74626.8,4.49,-15.15,-15.39,0,*75
1535929409.91,17394,19.63,74630.0,4.49,-15.01,-15.25,0,*7A
1535929411.12,17395,19.63,74630.0,4.49,-15.11,-15.29,0,*76
1535929412.37,17396,19.69,74630.8,4.51,-15.11,-15.39,0,*7D
1535929413.6,17397,19.63,74628.3,4.49,-15.25,-15.43,0,*7F
1535929414.83,17398,19.69,74630.3,4.49,-15.29,-15.43,0,*7C
1535929416.03,17399,19.63,74626.0,4.49,-15.29,-15.63,0,*7F
1535929417.24,17400,19.63,74628.8,4.49,-15.15,-15.49,0,*7F
1535929418.48,17401,19.63,74628.3,4.49,-15.15,-15.39,0,*79
1535929419.69,17402,19.63,74630.5,4.49,-15.25,-15.49,0,*7E
1535929420.92,17403,19.63,74628.0,4.49,-15.25,-15.43,0,*75
1535929422.16,17404,19.63,74628.3,4.51,-15.07,-15.35,0,*7A
1535929423.39,17405,19.63,74626.8,4.49,-15.01,-15.25,0,*75
1535929424.61,17406,19.63,74628.8,4.49,-14.97,-15.15,0,*7B
1535929425.82,17407,19.63,74628.0,4.49,-15.15,-15.29,0,*7E
1535929427.07,17408,19.63,74628.0,4.49,-14.75,-15.01,0,*7C
1535929428.32,17409,19.63,74624.0,4.49,-14.75,-14.97,0,*73
1535929429.57,17410,19.63,74626.5,4.51,-15.07,-15.39,0,*73
1535929430.8,17411,19.63,74628.3,4.49,-15.01,-15.29,0,*7C
1535929432.03,17412,19.69,74628.8,4.49,-15.15,-15.43,0,*76
1535929433.28,17413,19.63,74626.8,4.51,-15.11,-15.39,0,*77
1535929434.53,17414,19.63,74630.5,4.51,-14.83,-15.07,0,*77
1535929435.76,17415,19.69,74628.0,4.49,-14.93,-15.15,0,*7D
1535929436.98,17416,19.63,74626.0,4.51,-15.07,-15.25,0,*78
1535929438.21,17417,19.69,74628.3,4.49,-15.01,-15.29,0,*7A
1535929439.46,17418,19.63,74626.8,4.51,-15.11,-15.39,0,*7C
1535929440.73,17419,19.69,74630.3,4.51,-14.93,-15.35,0,*7A
1535929441.98,17420,19.63,74626.5,4.53,-15.21,-15.39,0,*76
1535929443.18,17421,19.63,74624.8,4.49,-15.11,-15.29,0,*7E
1535929444.41,17422,19.69,74630.8,4.49,-15.11,-15.39,0,*7C
1535929445.66,17423,19.63,74626.8,4.51,-15.25,-15.43,0,*7E
1535929446.9,17424,19.63,74630.5,4.51,-15.11,-15.35,0,*7F
1535929448.13,17425,19.63,74626.3,4.49,-15.01,-15.25,0,*77
1535929449.37,17426,19.63,74628.3,4.51,-14.69,-14.97,0,*7A
1535929450.62,17427,19.63,74628.8,4.51,-15.07,-15.35,0,*7B
1535929451.89,17428,19.63,74628.5,4.51,-14.83,-14.93,0,*74
1535929453.14,17429,19.63,74628.5,4.51,-15.07,-15.39,0,*79
1535929454.41,17430,19.63,74630.0,4.51,-14.97,-15.35,0,*75
1535929455.67,17431,19.69,74626.3,4.51,-14.97,-15.35,0,*74
1535929456.94,17432,19.69,74630.8,4.51,-14.93,-15.21,0,*76
1535929458.17,17433,19.69,74630.5,4.51,-15.07,-15.25,0,*7F
1535929459.42,17434,19.63,74626.8,4.51,-15.11,-15.39,0,*72
1535929460.66,17435,19.63,74626.3,4.51,-14.97,-15.25,0,*71
1535929461.91,17436,19.63,74628.5,4.51,-14.93,-15.07,0,*76
1535929463.15,17437,19.63,74630.3,4.51,-14.69,-14.97,0,*7A
1535929464.41,17438,19.63,74628.0,4.51,-14.97,-15.21,0,*78
1535929465.66,17439,19.63,74628.5,4.51,-15.11,-15.35,0,*73
1535929466.88,17440,19.63,74628.5,4.51,-15.11,-15.25,0,*7C
1535929468.13,17441,19.63,74630.3,4.51,-14.97,-15.25,0,*72
1535929469.38,17442,19.69,74630.3,4.51,-14.97,-15.25,0,*71
1535929470.6,17443,19.63,74626.0,4.51,-15.07,-15.25,0,*78
1535929471.83,17444,19.63,74626.8,4.55,-15.07,-15.29,0,*77
1535929473.08,17445,19.63,74626.5,4.51,-15.07,-15.35,0,*7F
1535929474.32,17446,19.69,74630.3,4.51,-15.07,-15.35,0,*7C
1535929475.55,17447,19.63,74630.5,4.53,-15.11,-15.39,0,*74
1535929476.76,17448,19.63,74630.8,4.53,-15.07,-15.25,0,*71
1535929478.01,17449,19.63,74630.3,4.51,-14.97,-15.25,0,*7A
1535929479.23,17450,19.63,74628.3,4.51,-15.07,-15.25,0,*7A
1535929480.46,17451,19.63,74628.8,4.51,-15.07,-15.25,0,*7B
1535929481.73,17452,19.69,74628.5,4.51,-15.21,-15.39,0,*71
1535929482.94,17453,19.63,74628.0,4.49,-15.11,-15.29,0,*7B
1535929484.21,17454,19.63,74630.3,4.51,-15.21,-15.39,0,*77
1535929485.46,17455,19.63,74628.3,4.53,-15.21,-15.39,0,*74
1535929486.71,17456,19.63,74630.8,4.53,-15.21,-15.43,0,*7A
1535929487.97,17457,19.63,74628.0,4.51,-14.97,-15.21,0,*71
1535929489.24,17458,19.69,74634.0,4.51,-15.21,-15.43,0,*76
1535929490.49,17459,19.63,74628.0,4.51,-15.25,-15.43,0,*73
1535929491.75,17460,19.63,74630.0,4.53,-15.21,-15.39,0,*72
1535929493.02,17461,19.63,74628.0,4.51,-15.21,-15.39,0,*71
1535929494.26,17462,19.63,74628.8,4.51,-15.11,-15.39,0,*71
1535929495.51,17463,19.63,74630.0,4.53,-14.97,-15.21,0,*74
1535929496.74,17464,19.63,74630.3,4.51,-15.07,-15.25,0,*7D
1535929497.98,17465,19.63,74626.8,4.51,-14.97,-15.11,0,*73
1535929499.22,17466,19.63,74626.8,4.51,-15.07,-15.35,0,*7E
1535929500.47,17467,19.63,74624.3,4.51,-15.11,-15.39,0,*74
1535929501.73,17468,19.63,74628.8,4.51,-14.97,-15.21,0,*7D
1535929502.98,17469,19.63,74630.5,4.51,-15.07,-15.35,0,*71
1535929504.22,17470,19.63,74628.0,4.51,-14.79,-15.07,0,*70
1535929505.47,17471,19.63,74628.3,4.51,-14.97,-15.25,0,*71
1535929506.7,17472,19.63,74628.5,4.51,-15.07,-15.25,0,*7A
1535929507.94,17473,19.63,74628.5,4.51,-15.11,-15.35,0,*7D
1535929509.16,17474,19.63,74628.5,4.53,-15.11,-15.35,0,*78
1535929510.41,17475,19.69,74630.5,4.53,-14.93,-15.21,0,*77
1535929511.65,17476,19.63,74628.5,4.51,-15.07,-15.35,0,*7F
1535929512.9,17477,19.63,74630.3,4.53,-15.21,-15.35,0,*78
1535929514.11,17478,19.63,74628.8,4.53,-15.07,-15.25,0,*72
1535929515.36,17479,19.63,74626.8,4.51,-15.11,-15.39,0,*7B
1535929516.6,17480,19.63,74630.0,4.51,-15.07,-15.21,0,*73
1535929517.82,17481,19.69,74632.5,4.51,-15.11,-15.25,0,*71
1535929519.07,17482,19.63,74626.0,4.51,-15.11,-15.43,0,*72
1535929520.34,17483,19.63,74624.3,4.51,-15.21,-15.43,0,*70
1535929521.56,17484,19.63,74624.5,4.49,-15.11,-15.35,0,*7C
1535929522.82,17485,19.63,74630.8,4.49,-15.39,-15.43,0,*76
1535929524.07,17486,19.63,74626.0,4.53,-15.21,-15.39,0,*7A
1535929525.31,17487,19.63,74628.0,4.53,-15.21,-15.57,0,*73
1535929526.58,17488,19.63,74628.0,4.51,-15.21,-15.57,0,*7E
1535929527.85,17489,19.63,74630.5,4.51,-15.21,-15.39,0,*77
1535929529.12,17490,19.63,74628.0,4.51,-15.21,-15.39,0,*7F
1535929530.37,17491,19.63,74630.3,4.51,-14.83,-15.07,0,*7A
1535929531.58,17492,19.63,74630.5,4.49,-15.11,-15.29,0,*76
1535929532.82,17493,19.63,74626.8,4.51,-14.93,-15.11,0,*7E
1535929534.07,17494,19.63,74624.5,4.53,-15.21,-15.35,0,*75
1535929535.32,17495,19.63,74630.3,4.53,-15.21,-15.39,0,*78
1535929536.52,17496,19.69,74628.5,4.53,-15.11,-15.25,0,*75
1535929537.77,17497,19.63,74628.5,4.53,-15.21,-15.39,0,*7A
1535929539.01,17498,19.63,74624.5,4.51,-15.11,-15.35,0,*78
1535929540.25,17499,19.63,74628.8,4.49,-15.25,-15.43,0,*76
1535929541.51,17500,19.63,74628.5,4.51,-15.21,-15.35,0,*7B
1535929542.76,17501,19.63,74624.8,4.51,-15.21,-15.25,0,*7B
1535929544.02,17502,19.63,74626.5,4.51,-15.21,-15.35,0,*79
1535929545.27,17503,19.63,74624.0,4.51,-14.93,-15.11,0,*76
1535929546.54,17504,19.63,74626.5,4.51,-14.79,-14.97,0,*7A
1535929547.78,17505,19.63,74624.0,4.51,-14.93,-15.11,0,*70
1535929549.03,17506,19.63,74626.5,4.51,-15.07,-15.35,0,*79
1535929550.28,17507,19.63,74626.3,4.51,-14.97,-15.25,0,*71
1535929551.52,17508,19.63,74628.3,4.51,-15.11,-15.35,0,*70
1535929552.78,17509,19.63,74626.0,4.51,-14.97,-15.21,0,*7B
1535929554.01,17510,19.63,74624.0,4.51,-15.07,-15.25,0,*7F
1535929555.26,17511,19.63,74626.3,4.51,-14.83,-15.07,0,*73
1535929556.53,17512,19.63,74624.0,4.51,-14.93,-15.21,0,*75
1535929557.76,17513,19.63,74622.0,4.53,-14.97,-15.25,0,*76
1535929558.98,17514,19.63,74626.3,4.53,-14.97,-15.11,0,*76
1535929560.18,17515,19.63,74624.3,4.53,-15.11,-15.25,0,*7F
1535929561.4,17516,19.63,74622.0,4.53,-15.11,-15.35,0,*7D
1535929562.65,17517,19.63,74626.5,4.53,-15.21,-15.39,0,*73
1535929563.88,17518,19.63,74626.0,4.53,-15.11,-15.35,0,*73
1535929565.12,17519,19.63,74626.8,4.53,-14.93,-14.97,0,*70
1535929566.35,17520,19.63,74626.3,4.53,-14.93,-15.11,0,*75
1535929567.57,17521,19.63,74626.8,4.53,-15.07,-15.35,0,*7E
1535929568.82,17522,19.63,74628.5,4.53,-14.93,-15.21,0,*74
1535929570.05,17523,19.63,74628.0,4.53,-14.93,-15.25,0,*71
1535929571.27,17524,19.63,74630.8,4.53,-15.11,-15.35,0,*7C
1535929572.52,17525,19.63,74630.8,4.55,-14.79,-15.07,0,*75
1535929573.76,17526,19.63,74628.0,4.55,-14.93,-15.07,0,*72
1535929575.01,17527,19.63,74626.8,4.53,-14.97,-15.21,0,*75
1535929576.25,17528,19.63,74626.0,4.53,-14.97,-15.21,0,*7A
1535929577.5,17529,19.63,74624.3,4.55,-15.15,-15.35,0,*73
1535929578.73,17530,19.63,74628.0,4.53,-14.97,-15.25,0,*77
1535929579.94,17531,19.63,74624.0,4.53,-15.07,-15.25,0,*7E
1535929581.19,17532,19.63,74628.0,4.53,-15.21,-15.39,0,*74
1535929582.42,17533,19.63,74626.0,4.55,-15.15,-15.29,0,*75
1535929583.67,17534,19.63,74626.8,4.55,-15.21,-15.53,0,*78
1535929584.9,17535,19.63,74628.5,4.53,-15.07,-15.35,0,*7B
1535929586.12,17536,19.69,74630.8,4.53,-15.11,-15.35,0,*7F
1535929587.35,17537,19.69,74628.5,4.53,-14.97,-15.25,0,*70
1535929588.61,17538,19.63,74628.8,4.55,-15.01,-15.21,0,*73
1535929589.86,17539,19.63,74628.0,4.55,-14.93,-15.07,0,*7C
1535929591.08,17540,19.63,74628.5,4.53,-15.11,-15.35,0,*7E
1535929592.28,17541,19.63,74624.3,4.53,-15.11,-15.25,0,*7E
1535929593.51,17542,19.63,74626.5,4.53,-14.97,-15.25,0,*72
1535929594.74,17543,19.63,74626.0,4.53,-14.97,-15.25,0,*73
1535929595.95,17544,19.63,74626.8,4.53,-15.07,-15.25,0,*7C
1535929597.19,17545,19.63,74626.0,4.55,-14.93,-15.15,0,*74
1535929598.44,17546,19.63,74628.3,4.53,-14.93,-15.21,0,*76
1535929599.65,17547,19.63,74626.3,4.53,-15.07,-15.25,0,*7F
1535929600.85,17548,19.63,74628.5,4.53,-15.07,-15.25,0,*70
1535929602.1,17549,19.63,74624.8,4.55,-15.01,-15.15,0,*72
1535929603.35,17550,19.63,74626.8,4.55,-15.01,-15.29,0,*75
1535929604.6,17551,19.63,74630.5,4.55,-15.01,-15.29,0,*74
1535929605.87,17552,19.63,74630.3,4.55,-14.93,-15.01,0,*77
1535929607.14,17553,19.63,74632.0,4.55,-14.93,-15.21,0,*74
1535929608.37,17554,19.63,74624.0,4.55,-15.07,-15.29,0,*77
1535929609.57,17555,19.63,74628.3,4.53,-15.11,-15.25,0,*7B
1535929610.82,17556,19.63,74630.3,4.55,-15.15,-15.35,0,*7B
1535929612.07,17557,19.69,74630.3,4.55,-14.93,-15.07,0,*74
1535929613.34,17558,19.63,74626.5,4.55,-14.79,-15.01,0,*79
1535929614.59,17559,19.63,74624.0,4.55,-14.65,-14.93,0,*7F
1535929615.82,17560,19.63,74630.8,4.53,-14.83,-15.07,0,*77
1535929617.07,17561,19.63,74626.0,4.55,-14.89,-15.01,0,*7C
1535929618.32,17562,19.63,74628.0,4.57,-14.75,-14.97,0,*70
1535929619.57,17563,19.63,74630.8,4.57,-14.83,-15.01,0,*76
1535929620.81,17564,19.63,74630.8,4.55,-14.93,-15.07,0,*74
1535929622.04,17565,19.63,74624.8,4.55,-14.89,-15.15,0,*7D
1535929623.26,17566,19.63,74628.0,4.57,-14.97,-15.15,0,*73
1535929624.5,17567,19.63,74630.3,4.55,-14.93,-15.15,0,*74
1535929625.73,17568,19.63,74630.5,4.57,-14.75,-14.89,0,*75
1535929626.95,17569,19.63,74632.8,4.57,-14.61,-14.83,0,*7B
1535929628.2,17570,19.63,74628.5,4.57,-14.75,-14.83,0,*76
1535929629.45,17571,19.63,74630.5,4.57,-14.47,-14.75,0,*7F
1535929630.65,17572,19.63,74628.5,4.57,-14.69,-14.89,0,*73
1535929631.84,17573,19.63,74628.3,4.57,-14.69,-14.89,0,*72
1535929633.04,17574,19.63,74626.8,4.57,-14.61,-14.89,0,*7D
1535929634.29,17575,19.63,74626.3,4.57,-14.83,-15.01,0,*71
1535929635.5,17576,19.63,74630.0,4.61,-14.89,-15.11,0,*7C
1535929636.72,17577,19.63,74626.3,4.61,-14.69,-14.97,0,*7C
1535929637.92,17578,19.63,74630.5,4.61,-14.61,-14.89,0,*74
1535929639.12,17579,19.63,74628.0,4.57,-14.89,-15.11,0,*76
1535929640.38,17580,19.63,74624.3,4.61,-14.75,-14.97,0,*79
1535929641.62,17581,19.63,74624.0,4.61,-14.75,-15.01,0,*76
1535929642.88,17582,19.63,74626.5,4.61,-14.75,-14.97,0,*7B
1535929644.13,17583,19.63,74622.0,4.63,-14.65,-14.83,0,*7C
1535929645.38,17584,19.63,74624.0,4.63,-14.65,-14.83,0,*7B
1535929646.63,17585,19.63,74626.8,4.61,-14.75,-14.97,0,*7C
1535929647.91,17586,19.63,74626.0,4.63,-14.55,-14.79,0,*7F
1535929649.19,17587,19.63,74624.8,4.63,-14.55,-14.83,0,*7B
1535929650.45,17588,19.63,74628.5,4.63,-14.51,-14.65,0,*78
1535929651.7,17589,19.63,74624.3,4.63,-14.43,-14.69,0,*76
1535929652.98,17590,19.63,74628.3,4.63,-14.43,-14.79,0,*7F
1535929654.27,17591,19.63,74630.0,4.63,-14.51,-14.79,0,*7D
1535929655.52,17592,19.63,74628.0,4.67,-14.61,-14.79,0,*79
1535929656.77,17593,19.63,74628.8,4.63,-14.65,-14.97,0,*78
1535929657.96,17594,19.63,74626.8,4.65,-14.69,-15.07,0,*7D
1535929659.17,17595,19.63,74630.0,4.65,-14.93,-15.11,0,*7E
1535929660.39,17596,19.63,74626.8,4.65,-14.69,-14.93,0,*73
1535929661.64,17597,19.63,74628.8,4.63,-14.79,-15.07,0,*79
1535929662.86,17598,19.63,74630.8,4.65,-14.93,-15.11,0,*73
1535929664.1,17599,19.63,74626.5,4.63,-14.69,-14.93,0,*7A
1535929665.35,17600,19.63,74628.3,4.63,-14.93,-15.11,0,*77
1535929666.59,17601,19.63,74626.5,4.65,-14.97,-15.21,0,*77
1535929667.8,17602,19.63,74628.3,4.65,-14.93,-15.11,0,*73
1535929669.08,17603,19.63,74624.3,4.63,-14.79,-14.97,0,*7F
1535929670.33,17604,19.63,74628.8,4.63,-14.93,-15.11,0,*73
1535929671.58,17605,19.63,74628.0,4.63,-15.07,-15.21,0,*7D
1535929672.8,17606,19.63,74628.5,4.65,-15.07,-15.21,0,*78
1535929674.02,17607,19.63,74628.0,4.65,-14.83,-15.07,0,*70
1535929675.27,17608,19.63,74626.8,4.63,-14.69,-14.97,0,*75
1535929676.55,17609,19.63,74624.3,4.67,-14.51,-14.75,0,*77
1535929677.77,17610,19.63,74626.5,4.65,-14.65,-14.79,0,*76
1535929678.99,17611,19.63,74626.5,4.65,-14.79,-15.07,0,*72
1535929680.21,17612,19.63,74626.8,4.65,-14.93,-15.11,0,*72
1535929681.45,17613,19.63,74628.5,4.67,-14.65,-14.93,0,*73
1535929682.7,17614,19.63,74628.8,4.69,-14.75,-14.97,0,*7F
1535929683.98,17615,19.63,74626.0,4.67,-14.75,-14.93,0,*74
1535929685.2,17616,19.63,74626.8,4.67,-14.65,-14.89,0,*7D
1535929686.43,17617,19.63,74630.3,4.67,-14.65,-14.89,0,*7C
1535929687.68,17618,19.63,74624.3,4.67,-14.79,-15.07,0,*79
1535929688.92,17619,19.63,74626.3,4.65,-14.93,-15.21,0,*7A
1535929690.15,17620,19.63,74626.5,4.67,-14.61,-14.89,0,*7C
1535929691.37,17621,19.63,74624.3,4.67,-14.89,-15.15,0,*7F
1535929692.64,17622,19.63,74624.3,4.67,-15.01,-15.21,0,*7A
1535929693.89,17623,19.63,74622.5,4.69,-14.83,-15.01,0,*7C
1535929695.12,17624,19.63,74626.0,4.67,-14.89,-15.07,0,*79
1535929696.32,17625,19.63,74626.8,4.65,-14.89,-15.11,0,*7D
1535929697.54,17626,19.63,74626.0,4.67,-14.89,-15.07,0,*7B
1535929698.77,17627,19.63,74626.5,4.67,-14.65,-14.89,0,*7F
1535929700.02,17628,19.63,74624.5,4.67,-14.79,-15.07,0,*7A
1535929701.26,17629,19.63,74626.0,4.67,-14.65,-15.01,0,*70
1535929702.55,17630,19.69,74630.0,4.67,-14.51,-14.75,0,*7D
1535929703.77,17631,19.63,74622.5,4.69,-14.43,-14.69,0,*7C